Weather History for K46D - April, 2014

Change the Weather History Date:

Tuesday, April 1, 2014

  Actual Average (KJMS) Record (KJMS)
Temperature  
Mean Temperature 12 °F 35 °F  
Max Temperature 24 °F 46 °F 78 °F (1907)
Min Temperature 1 °F 25 °F -5 °F (1975)
Degree Days  
Heating Degree Days 52 30  
Month to date heating degree days 30  
Since 1 July heating degree days 7950  
Cooling Degree Days 0 0  
Month to date cooling degree days 0  
Year to date cooling degree days 0  
Moisture  
Dew Point 6 °F    
Average Humidity 73    
Maximum Humidity 93    
Minimum Humidity 50    
Precipitation  
Precipitation 0.00 in 0.03 in 0.98 in (1999)
Month to date precipitation 0.03  
Year to date precipitation 1.72  
Sea Level Pressure  
Sea Level Pressure 30.07 in    
Wind  
Wind Speed 15 mph (NW)    
Max Wind Speed 21 mph    
Max Gust Speed 28 mph    
Visibility 10 miles    
Events      
T = Trace of Precipitation, MM = Missing Value Source: NWS Daily Summary

Daily Weather History Graph

Daily Weather History Graph

Search for Another Location

Airport or City:

Trip Planner

Search our weather history database for the weather conditions in past years. The results will help you decide how hot, cold, wet, or windy it might be!

Date:

Astronomy

Apr. 01, 2014 Rise Set
Actual Time 7:15 AM CDT 8:06 PM CDT
Civil Twilight 6:44 AM CDT 8:37 PM CDT
Nautical Twilight 6:07 AM CDT 9:14 PM CDT
Astronomical Twilight 5:28 AM CDT 9:54 PM CDT
Moon 8:10 AM CDT (4/1) 10:41 PM CDT (4/1)
Length of Visible Light 13h 53m
Length of Day
12h 51m
Waxing Crescent, 5% of the Moon is Illuminated
Apr 1
Waxing Crescent
Apr 7
First Quarter
Apr 15
Full
Apr 22
Last Quarter
Apr 29
New

Hourly Weather History & Observations

Time (CDT) Temp. Windchill Dew Point Humidity Pressure Visibility Wind Dir Wind Speed Gust Speed Precip Events Conditions
12:15 AM 10.4 °F -6.6 °F 6.8 °F 85% 30.02 in 10.0 mi NNW 16.1 mph 26.5 mph N/A   Unknown
12:35 AM 10.4 °F -8.6 °F 6.8 °F 85% 30.03 in 10.0 mi NNW 20.7 mph 27.6 mph N/A   Unknown
12:55 AM 10.4 °F -6.6 °F 5.0 °F 79% 30.03 in 8.0 mi NNW 16.1 mph 27.6 mph N/A   Unknown
1:15 AM 10.4 °F -6.6 °F 5.0 °F 79% 30.02 in 9.0 mi NNW 16.1 mph 24.2 mph N/A   Unknown
1:35 AM 10.4 °F -6.6 °F 5.0 °F 79% 30.03 in 10.0 mi NNW 16.1 mph 26.5 mph N/A   Unknown
1:55 AM 10.4 °F -7.2 °F 5.0 °F 79% 30.03 in 10.0 mi NNW 17.3 mph 25.3 mph N/A   Unknown
2:15 AM 10.4 °F -7.2 °F 3.2 °F 73% 30.03 in 10.0 mi NNW 17.3 mph 24.2 mph N/A   Unknown
2:35 AM 10.4 °F -7.7 °F 3.2 °F 73% 30.03 in 10.0 mi NNW 18.4 mph - N/A   Unknown
2:55 AM 8.6 °F -9.5 °F 3.2 °F 79% 30.03 in 10.0 mi NNW 17.3 mph 25.3 mph N/A   Unknown
3:15 AM 8.6 °F -9.5 °F 1.4 °F 73% 30.03 in 10.0 mi NNW 17.3 mph 25.3 mph N/A   Unknown
3:35 AM 8.6 °F -8.9 °F 1.4 °F 73% 30.02 in 10.0 mi NNW 16.1 mph 20.7 mph N/A   Unknown
3:55 AM 8.6 °F -9.5 °F 1.4 °F 73% 30.03 in 10.0 mi NNW 17.3 mph - N/A   Unknown
4:15 AM 6.8 °F -10.7 °F 1.4 °F 79% 30.03 in 10.0 mi NW 15.0 mph - N/A   Unknown
4:35 AM 6.8 °F -10.7 °F 1.4 °F 79% 30.03 in 10.0 mi NW 15.0 mph - N/A   Unknown
4:55 AM 6.8 °F -11.8 °F 1.4 °F 79% 30.03 in 10.0 mi NW 17.3 mph - N/A   Unknown
5:15 AM 6.8 °F -11.3 °F -0.4 °F 72% 30.03 in 10.0 mi NW 16.1 mph 23.0 mph N/A   Unknown
5:35 AM 5.0 °F -13.0 °F -0.4 °F 78% 30.04 in 10.0 mi NW 15.0 mph - N/A   Unknown
5:55 AM 5.0 °F -13.0 °F -0.4 °F 78% 30.04 in 10.0 mi NW 15.0 mph - N/A   Unknown
6:15 AM 5.0 °F -12.3 °F -0.4 °F 78% 30.04 in 10.0 mi NW 13.8 mph - N/A   Unknown
6:35 AM 5.0 °F -12.3 °F -0.4 °F 78% 30.04 in 10.0 mi NW 13.8 mph - N/A   Unknown
6:55 AM 5.0 °F -12.3 °F -0.4 °F 78% 30.04 in 10.0 mi NW 13.8 mph - N/A   Unknown
7:15 AM 5.0 °F -10.8 °F -0.4 °F 78% 30.04 in 10.0 mi NW 11.5 mph - N/A   Unknown
7:35 AM 3.2 °F -13.1 °F -0.4 °F 85% 30.04 in 10.0 mi NW 11.5 mph - N/A   Unknown
7:55 AM 1.4 °F -14.5 °F -0.4 °F 92% 30.05 in 10.0 mi NW 10.4 mph - N/A   Unknown
8:15 AM 3.2 °F -14.6 °F -0.4 °F 85% 30.06 in 10.0 mi WNW 13.8 mph - N/A   Unknown
8:35 AM 5.0 °F -13.6 °F -0.4 °F 78% 30.06 in 10.0 mi WNW 16.1 mph - N/A   Unknown
8:55 AM 5.0 °F -13.0 °F -0.4 °F 78% 30.06 in 10.0 mi NW 15.0 mph - N/A   Unknown
9:15 AM 6.8 °F -11.8 °F -0.4 °F 72% 30.07 in 10.0 mi NW 17.3 mph - N/A   Unknown
9:35 AM 6.8 °F -11.3 °F 1.4 °F 79% 30.07 in 10.0 mi NW 16.1 mph - N/A   Unknown
9:55 AM 8.6 °F -8.3 °F 1.4 °F 73% 30.07 in 10.0 mi NW 15.0 mph - N/A   Unknown
10:15 AM 8.6 °F -8.9 °F 1.4 °F 73% 30.07 in 10.0 mi NW 16.1 mph - N/A   Unknown
10:35 AM 10.4 °F -6.6 °F 3.2 °F 73% 30.08 in 10.0 mi NW 16.1 mph - N/A   Unknown
10:55 AM 10.4 °F -6.6 °F 3.2 °F 73% 30.08 in 10.0 mi NNW 16.1 mph - N/A   Unknown
11:15 AM 12.2 °F -4.3 °F 5.0 °F 73% 30.09 in 10.0 mi NW 16.1 mph - N/A   Unknown
11:35 AM 14.0 °F -0.2 °F 5.0 °F 67% 30.09 in 10.0 mi NNW 12.7 mph - N/A   Unknown
11:55 AM 14.0 °F -0.8 °F 5.0 °F 67% 30.09 in 10.0 mi NNW 13.8 mph - N/A   Unknown
12:15 PM 15.8 °F 0.3 °F 6.8 °F 68% 30.09 in 10.0 mi NW 16.1 mph - N/A   Unknown
12:35 PM 15.8 °F 0.9 °F 5.0 °F 62% 30.09 in 10.0 mi NW 15.0 mph - N/A   Unknown
12:55 PM 17.6 °F 3.2 °F 5.0 °F 58% 30.09 in 10.0 mi NW 15.0 mph 19.6 mph N/A   Unknown
1:15 PM 17.6 °F 3.2 °F 6.8 °F 63% 30.09 in 10.0 mi NW 15.0 mph - N/A   Unknown
1:35 PM 17.6 °F 3.2 °F 6.8 °F 63% 30.09 in 10.0 mi NW 15.0 mph - N/A   Unknown
1:55 PM 19.4 °F 5.0 °F 8.6 °F 63% 30.08 in 10.0 mi NW 16.1 mph - N/A   Unknown
2:15 PM 19.4 °F 5.0 °F 8.6 °F 63% 30.09 in 10.0 mi NW 16.1 mph - N/A   Unknown
2:35 PM 21.2 °F 6.8 °F 8.6 °F 58% 30.08 in 10.0 mi NW 17.3 mph - N/A   Unknown
2:55 PM 21.2 °F 7.8 °F 8.6 °F 58% 30.08 in 10.0 mi NW 15.0 mph 19.6 mph N/A   Unknown
3:35 PM 23.0 °F 10.6 °F 8.6 °F 54% 30.08 in 10.0 mi NW 13.8 mph - N/A   Unknown
3:55 PM 23.0 °F 9.6 °F 10.4 °F 59% 30.08 in 10.0 mi NW 16.1 mph - N/A   Unknown
4:35 PM 23.0 °F 12.4 °F 8.6 °F 54% 30.07 in 10.0 mi NNW 10.4 mph 17.3 mph N/A   Unknown
4:55 PM 23.0 °F 11.1 °F 8.6 °F 54% 30.07 in 10.0 mi NNW 12.7 mph - N/A   Unknown
5:15 PM 24.8 °F 14.6 °F 8.6 °F 50% 30.07 in 10.0 mi NNW 10.4 mph - N/A   Unknown
5:35 PM 24.8 °F 15.3 °F 8.6 °F 50% 30.07 in 10.0 mi NW 9.2 mph - N/A   Unknown
5:55 PM 24.8 °F 15.3 °F 10.4 °F 54% 30.08 in 10.0 mi NNW 9.2 mph - N/A   Unknown
6:15 PM 24.8 °F 15.3 °F 12.2 °F 59% 30.08 in 10.0 mi NW 9.2 mph - N/A   Unknown
6:35 PM 23.0 °F 12.4 °F 12.2 °F 63% 30.09 in 10.0 mi WNW 10.4 mph - N/A   Unknown
6:55 PM 23.0 °F 13.1 °F 10.4 °F 59% 30.09 in 10.0 mi WNW 9.2 mph - N/A   Unknown
7:15 PM 23.0 °F 13.9 °F 10.4 °F 59% 30.10 in 10.0 mi WNW 8.1 mph - N/A   Unknown
7:35 PM 23.0 °F 14.7 °F 12.2 °F 63% 30.10 in 10.0 mi West 6.9 mph - N/A   Unknown
7:55 PM 19.4 °F 11.5 °F 14.0 °F 80% 30.10 in 10.0 mi WNW 5.8 mph - N/A   Unknown
8:15 PM 17.6 °F 9.3 °F 14.0 °F 86% 30.10 in 10.0 mi WNW 5.8 mph - N/A   Unknown
8:35 PM 15.8 °F 7.2 °F 10.4 °F 79% 30.10 in 10.0 mi WNW 5.8 mph - N/A   Unknown
8:55 PM 15.8 °F 7.2 °F 12.2 °F 86% 30.11 in 10.0 mi West 5.8 mph - N/A   Unknown
9:15 PM 15.8 °F 6.1 °F 10.4 °F 79% 30.11 in 10.0 mi West 6.9 mph - N/A   Unknown
9:35 PM 14.0 °F 5.1 °F 12.2 °F 93% 30.11 in 10.0 mi West 5.8 mph - N/A   Unknown
9:55 PM 14.0 °F 2.9 °F 10.4 °F 86% 30.12 in 10.0 mi West 8.1 mph - N/A   Unknown
10:15 PM 10.4 °F -1.5 °F 8.6 °F 92% 30.12 in 10.0 mi West 8.1 mph - N/A   Unknown
10:35 PM 10.4 °F -1.5 °F 8.6 °F 92% 30.12 in 10.0 mi WSW 8.1 mph - N/A   Unknown
10:55 PM 10.4 °F -2.4 °F 6.8 °F 85% 30.13 in 10.0 mi West 9.2 mph - N/A   Unknown
11:15 PM 10.4 °F -0.4 °F 6.8 °F 85% 30.13 in 10.0 mi WSW 6.9 mph - N/A   Unknown
11:35 PM 10.4 °F -1.5 °F 6.8 °F 85% 30.13 in 10.0 mi West 8.1 mph - N/A   Unknown
11:55 PM 10.4 °F -2.4 °F 6.8 °F 85% 30.14 in 10.0 mi West 9.2 mph - N/A   Unknown